Regional Weather Roundup
Issued by NWS

Home | Current Version | Previous Version | Text Only | Print | Product List | Glossary Off
Versions: 1 2 3 4 5 6 7 8 9 10 11 12 13 14 15 16 17 18 19 20 21 22 23 24 25 26 27 28 29 30 31 32 33 34 35 36 37 38 39 40 41 42 43 44 45 46 47 48 49 50

000
ASUS43 KFSD 301002
RWRSD

WEATHER ROUNDUP FOR SOUTH DAKOTA
NATIONAL WEATHER SERVICE SIOUX FALLS SD
500 AM CDT THU JUL 30 2015

NOTE: "FAIR" INDICATES FEW OR NO CLOUDS BELOW 12,000 FEET WITH NO
SIGNIFICANT WEATHER AND/OR OBSTRUCTIONS TO VISIBILITY.


SDZ001>005-009-010-012>017-301100-
NORTHWEST AND NORTH CENTRAL SOUTH DAKOTA

CITY           SKY/WX    TMP DP  RH WIND       PRES   REMARKS
BUFFALO          N/A     59  40  49 NW8       30.15S
FAITH            N/A     62  40  44 SW3       30.18S
MOBRIDGE       CLEAR     56  53  90 CALM      30.12S
$$

SDZ012>016-024>037-041>051-057-063-072>074-301100-
SOUTHWEST AND SOUTH CENTRAL SOUTH DAKOTA

CITY           SKY/WX    TMP DP  RH WIND       PRES   REMARKS
RAPID CTY ARPT CLEAR     57  46  66 NW10      30.23R
PIERRE         CLEAR     57  47  69 NW5       30.13R
CUSTER         CLEAR     47  38  71 NW3       30.35S
ELLSWORTH AFB  CLEAR     55  46  70 NW8       30.22S
PHILIP         CLEAR     54  51  90 W6        30.17R
PINE RIDGE     CLEAR     53  47  79 NW3       30.21S
WINNER         FAIR      69  50  50 SW9       30.15S
$$

SDZ004>011-016>023-039-040-301100-
NORTHEAST SOUTH DAKOTA

CITY           SKY/WX    TMP DP  RH WIND       PRES   REMARKS
ABERDEEN       CLEAR     55  51  86 SW3       30.11R
WATERTOWN      CLEAR     62  54  74 SW10      30.11R
BROOKINGS      CLEAR     61  52  72 S3        30.14R
SISSETON         N/A     66  54  65 W12       30.06R
$$

SDZ017-020-022-023-036>040-048>070-301100-
SOUTHEAST SOUTH DAKOTA

CITY           SKY/WX    TMP DP  RH WIND       PRES   REMARKS
SIOUX FALLS    PTCLDY    58  54  86 CALM      30.12F
HURON          CLEAR     59  53  80 CALM      30.11R
CHAMBERLAIN    CLEAR     56  54  91 CALM      30.14S
MITCHELL       CLEAR     57  54  89 CALM      30.12S
YANKTON        PTCLDY    66  55  68 SW7       30.13S
$$

ABBREVIATIONS USED IN REMARKS
   TC - TEMPERATURE IN CELSIUS
  WCI - WIND CHILL INDEX
   HX - HEAT INDEX
  VSB - VISIBILITY



USA.gov is the U.S. government's official web portal to all federal, state and local government web resources and services.